| time (UTC) | temp F | wind direction | speed MPH | gust MPH | rain 1hr in | rain 24hr in | rain mn in | humidity % | barometer mb |
| 20260505005544 | 63 | 0 | 0.0 | 3.0 | 0.00 | 0.00 | 0.00 | 43 | 1006.6 |
| 20260505005043 | 62 | 0 | 0.0 | 3.0 | 0.00 | 0.00 | 0.00 | 44 | 1006.6 |
| 20260505004550 | 62 | 166 | 0.0 | 0.0 | 0.00 | 0.00 | 0.00 | 44 | 1006.5 |
| 20260505004044 | 62 | 0 | 0.0 | 0.0 | 0.00 | 0.00 | 0.00 | 43 | 1006.4 |
| 20260505003543 | 63 | 0 | 0.0 | 0.0 | 0.00 | 0.00 | 0.00 | 42 | 1006.3 |
| 20260505003059 | 63 | 0 | 0.0 | 0.0 | 0.00 | 0.00 | 0.00 | 41 | 1006.1 |
| 20260505002544 | 64 | 0 | 0.0 | 0.0 | 0.00 | 0.00 | 0.00 | 40 | 1006.2 |
| 20260505002044 | 64 | 0 | 0.0 | 0.0 | 0.00 | 0.00 | 0.00 | 40 | 1006.0 |
| 20260505001551 | 65 | 0 | 0.0 | 0.0 | 0.00 | 0.00 | 0.00 | 38 | 1005.9 |
| 20260505001042 | 65 | 0 | 0.0 | 1.0 | 0.00 | 0.00 | 0.00 | 38 | 1005.9 |
| 20260505000541 | 66 | 0 | 0.0 | 3.0 | 0.00 | 0.00 | 0.00 | 38 | 1005.8 |
| 20260504235542 | 66 | 166 | 0.0 | 3.0 | 0.00 | 0.00 | 0.00 | 36 | 1005.8 |
| 20260504235042 | 67 | 0 | 0.0 | 4.0 | 0.00 | 0.00 | 0.00 | 36 | 1005.7 |
| 20260504234548 | 67 | 0 | 0.0 | 5.0 | 0.00 | 0.00 | 0.00 | 36 | 1005.6 |
| 20260504234041 | 67 | 165 | 1.0 | 5.0 | 0.00 | 0.00 | 0.00 | 36 | 1005.6 |
| 20260504233543 | 68 | 220 | 0.0 | 2.0 | 0.00 | 0.00 | 0.00 | 34 | 1005.5 |
| 20260504233053 | 68 | 0 | 0.0 | 4.0 | 0.00 | 0.00 | 0.00 | 34 | 1005.5 |
| 20260504232542 | 69 | 0 | 0.0 | 6.0 | 0.00 | 0.00 | 0.00 | 34 | 1005.5 |
| 20260504232042 | 69 | 0 | 0.0 | 6.0 | 0.00 | 0.00 | 0.00 | 33 | 1005.4 |
| 20260504231549 | 70 | 220 | 2.0 | 5.0 | 0.00 | 0.00 | 0.00 | 32 | 1005.2 |
| 20260504231039 | 70 | 304 | 1.0 | 5.0 | 0.00 | 0.00 | 0.00 | 31 | 1005.1 |
| 20260504230541 | 70 | 298 | 1.0 | 5.0 | 0.00 | 0.00 | 0.00 | 33 | 1005.0 |
| 20260504230049 | 70 | 248 | 1.0 | 10.0 | 0.00 | 0.00 | 0.00 | 31 | 1004.9 |
| 20260504225538 | 70 | 0 | 2.0 | 10.0 | 0.00 | 0.00 | 0.00 | 32 | 1004.9 |
| 20260504225041 | 70 | 218 | 3.0 | 8.0 | 0.00 | 0.00 | 0.00 | 32 | 1004.7 |
| 20260504224543 | 71 | 229 | 2.0 | 8.0 | 0.00 | 0.00 | 0.00 | 31 | 1004.7 |
| 20260504224045 | 71 | 246 | 2.0 | 10.0 | 0.00 | 0.00 | 0.00 | 32 | 1004.7 |
| 20260504223542 | 71 | 211 | 2.0 | 10.0 | 0.00 | 0.00 | 0.00 | 33 | 1004.8 |
| 20260504223049 | 71 | 322 | 2.0 | 8.0 | 0.00 | 0.00 | 0.00 | 33 | 1004.6 |
| 20260504222542 | 71 | 0 | 2.0 | 10.0 | 0.00 | 0.00 | 0.00 | 31 | 1004.6 |
| 20260504222044 | 71 | 294 | 4.0 | 10.0 | 0.00 | 0.00 | 0.00 | 31 | 1004.6 |
| 20260504221554 | 72 | 223 | 2.0 | 10.0 | 0.00 | 0.00 | 0.00 | 31 | 1004.8 |
| 20260504221042 | 72 | 194 | 3.0 | 11.0 | 0.00 | 0.00 | 0.00 | 31 | 1004.6 |
| 20260504220542 | 73 | 284 | 4.0 | 11.0 | 0.00 | 0.00 | 0.00 | 29 | 1004.6 |
| 20260504220110 | 73 | 0 | 1.0 | 10.0 | 0.00 | 0.00 | 0.00 | 32 | 1004.6 |
| 20260504215542 | 73 | 268 | 2.0 | 11.0 | 0.00 | 0.00 | 0.00 | 30 | 1004.7 |
| 20260504215042 | 73 | 229 | 3.0 | 11.0 | 0.00 | 0.00 | 0.00 | 31 | 1004.6 |
| 20260504214553 | 72 | 240 | 6.0 | 11.0 | 0.00 | 0.00 | 0.00 | 29 | 1004.5 |
| 20260504214042 | 72 | 233 | 2.0 | 8.0 | 0.00 | 0.00 | 0.00 | 32 | 1004.5 |
| 20260504213541 | 72 | 219 | 2.0 | 9.0 | 0.00 | 0.00 | 0.00 | 30 | 1004.6 |
| 20260504213050 | 73 | 182 | 3.0 | 14.0 | 0.00 | 0.00 | 0.00 | 31 | 1004.5 |
| 20260504212543 | 72 | 206 | 3.0 | 14.0 | 0.00 | 0.00 | 0.00 | 30 | 1004.7 |
| 20260504212039 | 73 | 211 | 4.0 | 12.0 | 0.00 | 0.00 | 0.00 | 30 | 1004.7 |
| 20260504211545 | 73 | 250 | 4.0 | 12.0 | 0.00 | 0.00 | 0.00 | 30 | 1004.7 |
| 20260504211042 | 74 | 205 | 2.0 | 11.0 | 0.00 | 0.00 | 0.00 | 30 | 1004.7 |
| 20260504210542 | 73 | 298 | 3.0 | 11.0 | 0.00 | 0.00 | 0.00 | 30 | 1004.6 |
| 20260504210052 | 73 | 180 | 4.0 | 16.0 | 0.00 | 0.00 | 0.00 | 30 | 1004.5 |
| 20260504205544 | 73 | 242 | 4.0 | 16.0 | 0.00 | 0.00 | 0.00 | 29 | 1004.5 |
| 20260504205044 | 73 | 179 | 6.0 | 15.0 | 0.00 | 0.00 | 0.00 | 31 | 1004.5 |
| 20260504204600 | 74 | 220 | 5.0 | 11.0 | 0.00 | 0.00 | 0.00 | 30 | 1004.4 |
| 20260504204043 | 73 | 232 | 2.0 | 8.0 | 0.00 | 0.00 | 0.00 | 29 | 1004.5 |
| 20260504203544 | 73 | 322 | 2.0 | 10.0 | 0.00 | 0.00 | 0.00 | 31 | 1004.6 |
| 20260504203057 | 72 | 0 | 2.0 | 12.0 | 0.00 | 0.00 | 0.00 | 29 | 1004.8 |
| 20260504202544 | 72 | 236 | 3.0 | 12.0 | 0.00 | 0.00 | 0.00 | 31 | 1004.7 |
| 20260504202044 | 72 | 229 | 3.0 | 18.0 | 0.00 | 0.00 | 0.00 | 29 | 1004.6 |
| 20260504201555 | 73 | 242 | 6.0 | 18.0 | 0.00 | 0.00 | 0.00 | 29 | 1004.7 |
| 20260504201045 | 73 | 293 | 4.0 | 10.0 | 0.00 | 0.00 | 0.00 | 29 | 1004.6 |
| 20260504200544 | 74 | 221 | 4.0 | 11.0 | 0.00 | 0.00 | 0.00 | 30 | 1004.8 |
| 20260504200100 | 74 | 329 | 5.0 | 11.0 | 0.00 | 0.00 | 0.00 | 28 | 1004.7 |
| 20260504195542 | 73 | 284 | 3.0 | 12.0 | 0.00 | 0.00 | 0.00 | 31 | 1004.6 |
| 20260504195044 | 73 | 157 | 3.0 | 17.0 | 0.00 | 0.00 | 0.00 | 32 | 1004.8 |
| 20260504194555 | 72 | 259 | 3.0 | 17.0 | 0.00 | 0.00 | 0.00 | 31 | 1004.7 |
| 20260504194047 | 71 | 200 | 3.0 | 11.0 | 0.00 | 0.00 | 0.00 | 29 | 1004.7 |
| 20260504193544 | 72 | 295 | 4.0 | 11.0 | 0.00 | 0.00 | 0.00 | 28 | 1004.9 |
| 20260504193052 | 72 | 13 | 3.0 | 14.0 | 0.00 | 0.00 | 0.00 | 29 | 1004.9 |
| 20260504192543 | 72 | 273 | 5.0 | 14.0 | 0.00 | 0.00 | 0.00 | 29 | 1004.8 |
| 20260504192043 | 72 | 198 | 4.0 | 17.0 | 0.00 | 0.00 | 0.00 | 29 | 1004.8 |
| 20260504191555 | 71 | 16 | 4.0 | 17.0 | 0.00 | 0.00 | 0.00 | 31 | 1004.7 |
| 20260504191044 | 72 | 256 | 4.0 | 12.0 | 0.00 | 0.00 | 0.00 | 28 | 1005.0 |
| 20260504190544 | 71 | 236 | 5.0 | 15.0 | 0.00 | 0.00 | 0.00 | 33 | 1005.0 |
| 20260504185544 | 70 | 193 | 6.0 | 17.0 | 0.00 | 0.00 | 0.00 | 32 | 1004.9 |
| 20260504185044 | 71 | 211 | 4.0 | 22.0 | 0.00 | 0.00 | 0.00 | 30 | 1005.0 |
| 20260504184613 | 71 | 269 | 7.0 | 22.0 | 0.00 | 0.00 | 0.00 | 28 | 1005.0 |
| 20260504184045 | 71 | 221 | 8.0 | 14.0 | 0.00 | 0.00 | 0.00 | 30 | 1004.8 |
| 20260504183545 | 71 | 248 | 5.0 | 14.0 | 0.00 | 0.00 | 0.00 | 30 | 1004.8 |
| 20260504183056 | 72 | 169 | 5.0 | 19.0 | 0.00 | 0.00 | 0.00 | 30 | 1005.0 |
| 20260504182545 | 72 | 214 | 5.0 | 19.0 | 0.00 | 0.00 | 0.00 | 32 | 1004.8 |
| 20260504182044 | 72 | 59 | 5.0 | 18.0 | 0.00 | 0.00 | 0.00 | 28 | 1005.1 |
| 20260504181552 | 71 | 244 | 6.0 | 17.0 | 0.00 | 0.00 | 0.00 | 29 | 1004.9 |
| 20260504181044 | 72 | 167 | 7.0 | 15.0 | 0.00 | 0.00 | 0.00 | 30 | 1004.9 |
| 20260504180545 | 72 | 198 | 4.0 | 17.0 | 0.00 | 0.00 | 0.00 | 32 | 1005.0 |
| 20260504180052 | 71 | 215 | 6.0 | 17.0 | 0.00 | 0.00 | 0.00 | 31 | 1005.1 |
| 20260504175543 | 71 | 184 | 6.0 | 18.0 | 0.00 | 0.00 | 0.00 | 30 | 1005.0 |
| 20260504175042 | 71 | 195 | 5.0 | 18.0 | 0.00 | 0.00 | 0.00 | 31 | 1005.2 |
| 20260504174549 | 70 | 198 | 8.0 | 17.0 | 0.00 | 0.00 | 0.00 | 30 | 1005.1 |
| 20260504174043 | 71 | 312 | 8.0 | 17.0 | 0.00 | 0.00 | 0.00 | 30 | 1005.2 |
| 20260504173541 | 71 | 195 | 4.0 | 14.0 | 0.00 | 0.00 | 0.00 | 32 | 1005.1 |
| 20260504173102 | 70 | 226 | 6.0 | 18.0 | 0.00 | 0.00 | 0.00 | 36 | 1005.2 |
| 20260504172541 | 69 | 221 | 6.0 | 18.0 | 0.00 | 0.00 | 0.00 | 33 | 1005.3 |
| 20260504172043 | 70 | 213 | 6.0 | 17.0 | 0.00 | 0.00 | 0.00 | 37 | 1005.4 |
| 20260504171551 | 70 | 225 | 7.0 | 19.0 | 0.00 | 0.00 | 0.00 | 34 | 1005.2 |
| 20260504171042 | 69 | 240 | 6.0 | 27.0 | 0.00 | 0.00 | 0.00 | 32 | 1005.2 |
| 20260504170542 | 69 | 218 | 8.0 | 27.0 | 0.00 | 0.00 | 0.00 | 31 | 1005.2 |
| 20260504151041 | 65 | 209 | 8.0 | 14.0 | 0.00 | 0.00 | 0.00 | 36 | 1006.3 |
| 20260504150540 | 65 | 182 | 7.0 | 14.0 | 0.00 | 0.00 | 0.00 | 36 | 1006.5 |
| 20260504141042 | 62 | 230 | 2.0 | 11.0 | 0.00 | 0.00 | 0.00 | 44 | 1007.5 |
| 20260504140542 | 61 | 175 | 4.0 | 11.0 | 0.00 | 0.00 | 0.00 | 42 | 1007.6 |
| 20260504130543 | 56 | 207 | 1.0 | 6.0 | 0.00 | 0.00 | 0.00 | 52 | 1008.2 |
| 20260504110542 | 45 | 0 | 0.0 | 4.0 | 0.00 | 0.00 | 0.00 | 63 | 1009.2 |
| 20260504100542 | 44 | 182 | 0.0 | 3.0 | 0.00 | 0.00 | 0.00 | 65 | 1009.0 |
| 20260504081545 | 43 | 0 | 0.0 | 4.0 | 0.00 | 0.00 | 0.00 | 67 | 1008.8 |
| 20260504081043 | 42 | 199 | 2.0 | 4.0 | 0.00 | 0.00 | 0.00 | 70 | 1008.7 |
| 20260504080543 | 42 | 199 | 1.0 | 4.0 | 0.00 | 0.00 | 0.00 | 69 | 1008.8 |
| 20260504050543 | 39 | 0 | 0.0 | 0.0 | 0.00 | 0.01 | 0.00 | 70 | 1008.7 |
| 20260504045543 | 39 | 0 | 0.0 | 0.0 | 0.00 | 0.01 | 0.00 | 69 | 1008.8 |
| 20260504045041 | 39 | 0 | 0.0 | 0.0 | 0.00 | 0.01 | 0.00 | 69 | 1008.8 |
| 20260504044558 | 39 | 0 | 0.0 | 0.0 | 0.00 | 0.01 | 0.00 | 69 | 1008.7 |
| 20260504044043 | 39 | 0 | 0.0 | 2.0 | 0.00 | 0.01 | 0.00 | 69 | 1008.8 |
| 20260504043543 | 39 | 0 | 0.0 | 2.0 | 0.00 | 0.01 | 0.00 | 69 | 1008.8 |
| 20260504043047 | 39 | 0 | 0.0 | 0.0 | 0.00 | 0.01 | 0.00 | 68 | 1008.7 |
| 20260504042544 | 39 | 0 | 0.0 | 0.0 | 0.00 | 0.01 | 0.00 | 68 | 1008.6 |
| 20260504042045 | 40 | 0 | 0.0 | 0.0 | 0.00 | 0.01 | 0.00 | 68 | 1008.6 |
| 20260504041549 | 40 | 0 | 0.0 | 0.0 | 0.00 | 0.01 | 0.00 | 67 | 1008.5 |
| 20260504041044 | 40 | 0 | 0.0 | 0.0 | 0.00 | 0.01 | 0.00 | 66 | 1008.5 |
| 20260504040543 | 40 | 0 | 0.0 | 0.0 | 0.00 | 0.01 | 0.00 | 66 | 1008.4 |
| 20260504040100 | 40 | 0 | 0.0 | 1.0 | 0.00 | 0.01 | 0.00 | 66 | 1008.4 |
| 20260504035547 | 40 | 0 | 0.0 | 1.0 | 0.00 | 0.01 | 0.01 | 66 | 1008.4 |
| 20260504035044 | 40 | 0 | 0.0 | 1.0 | 0.00 | 0.01 | 0.01 | 66 | 1008.3 |
| 20260504034558 | 40 | 0 | 0.0 | 1.0 | 0.00 | 0.01 | 0.01 | 66 | 1008.3 |
| 20260504034046 | 40 | 0 | 0.0 | 2.0 | 0.00 | 0.01 | 0.01 | 67 | 1008.3 |
| 20260504033542 | 40 | 0 | 0.0 | 2.0 | 0.00 | 0.01 | 0.01 | 66 | 1008.3 |
| 20260504033114 | 41 | 0 | 0.0 | 3.0 | 0.00 | 0.01 | 0.01 | 66 | 1008.3 |
| 20260504032544 | 41 | 0 | 0.0 | 3.0 | 0.00 | 0.01 | 0.01 | 66 | 1008.2 |
| 20260504032043 | 41 | 284 | 0.0 | 2.0 | 0.00 | 0.01 | 0.01 | 65 | 1008.0 |
| 20260504031545 | 41 | 0 | 0.0 | 0.0 | 0.00 | 0.01 | 0.01 | 65 | 1008.1 |
| 20260504031043 | 41 | 0 | 0.0 | 0.0 | 0.00 | 0.01 | 0.01 | 63 | 1008.0 |
| 20260504030543 | 42 | 0 | 0.0 | 0.0 | 0.00 | 0.01 | 0.01 | 62 | 1008.0 |
| 20260504030051 | 42 | 0 | 0.0 | 4.0 | 0.00 | 0.01 | 0.01 | 62 | 1008.0 |
| 20260504025543 | 42 | 0 | 0.0 | 4.0 | 0.00 | 0.01 | 0.01 | 61 | 1008.0 |
| 20260504025043 | 42 | 0 | 0.0 | 0.0 | 0.00 | 0.01 | 0.01 | 62 | 1008.0 |
| 20260504024550 | 42 | 0 | 0.0 | 0.0 | 0.00 | 0.01 | 0.01 | 62 | 1008.1 |
| 20260504024044 | 42 | 0 | 0.0 | 0.0 | 0.00 | 0.01 | 0.01 | 61 | 1008.1 |
| 20260504023543 | 41 | 0 | 0.0 | 0.0 | 0.00 | 0.01 | 0.01 | 62 | 1008.1 |
| 20260504023100 | 41 | 0 | 0.0 | 0.0 | 0.00 | 0.01 | 0.01 | 62 | 1008.2 |
| 20260504022549 | 41 | 0 | 0.0 | 0.0 | 0.00 | 0.01 | 0.01 | 62 | 1008.1 |
| 20260504022041 | 41 | 0 | 0.0 | 0.0 | 0.00 | 0.01 | 0.01 | 63 | 1008.1 |
| 20260504021552 | 41 | 0 | 0.0 | 0.0 | 0.00 | 0.01 | 0.01 | 64 | 1008.1 |
| 20260504021043 | 41 | 0 | 0.0 | 0.0 | 0.00 | 0.01 | 0.01 | 64 | 1008.1 |
| 20260504020541 | 41 | 0 | 0.0 | 0.0 | 0.00 | 0.01 | 0.01 | 65 | 1008.1 |
| 20260504020057 | 42 | 0 | 0.0 | 2.0 | 0.00 | 0.01 | 0.01 | 65 | 1008.1 |
| 20260504015542 | 42 | 0 | 0.0 | 2.0 | 0.00 | 0.01 | 0.01 | 64 | 1008.1 |
| 20260504015042 | 43 | 246 | 0.0 | 2.0 | 0.00 | 0.01 | 0.01 | 60 | 1008.0 |
| 20260504014549 | 43 | 246 | 0.0 | 1.0 | 0.00 | 0.01 | 0.01 | 57 | 1008.0 |
| 20260504014043 | 43 | 0 | 0.0 | 1.0 | 0.00 | 0.01 | 0.01 | 56 | 1008.1 |
| 20260504013542 | 44 | 0 | 0.0 | 0.0 | 0.00 | 0.01 | 0.01 | 56 | 1008.1 |
| 20260504013100 | 44 | 0 | 0.0 | 2.0 | 0.00 | 0.01 | 0.01 | 55 | 1007.9 |
| 20260504012542 | 44 | 0 | 0.0 | 2.0 | 0.00 | 0.01 | 0.01 | 55 | 1008.0 |
| 20260504012042 | 44 | 246 | 0.0 | 2.0 | 0.00 | 0.01 | 0.01 | 55 | 1008.0 |
| 20260504011546 | 44 | 0 | 0.0 | 2.0 | 0.00 | 0.01 | 0.01 | 54 | 1008.0 |
| 20260504011042 | 45 | 0 | 0.0 | 2.0 | 0.00 | 0.01 | 0.01 | 54 | 1008.1 |
| 20260504010542 | 45 | 0 | 0.0 | 1.0 | 0.00 | 0.01 | 0.01 | 53 | 1008.0 |
| 20260504010059 | 46 | 245 | 0.0 | 1.0 | 0.00 | 0.01 | 0.01 | 52 | 1007.8 |